THOR 7 1 40613U 15022A 21065.40587741 -.00000024 00000-0 00000-0 0 9991 2 40613 0.0137 205.3908 0002543 141.9059 322.5069 1.00269990 21485 ARIANE 5 R/B 1 40615U 15022C 21065.42718697 .00007123 00000-0 76579-3 0 9994 2 40615 5.6515 88.0260 7064196 299.3247 8.6414 2.57899367 52054